SCP
0 0 0 0 0 0 0 0 0 0 -0 -0 -0 -0 -0 0 0 0 0 0 0 0 0 0 0 0 0 0 0 0 0 0 0 0 0 0 0 0
0 0 0 0 0 0 0 0 0 0 0 -0 -0 -0 -0 0 0 0 0 0 0 0 0 0 0 0 0 0 0 0 0 0 0 0 0 0 0 0
0 0 0 0 0 0 0 0 0 0 0 -0 -0 -0 -0 0 0 0 0 0 0 0 0 0 0 0 0 0 0 0 0 0 0 0 0 0 0 0
0 0 0 0 0 0 0 0 0 0 0 0 -0 -0 -0 -0 0 0 0 0 0 0 0 0 0 0 0 0 0 0 0 0 0 0 0 0 0 0
0 0 0 0 0 0 0 0 0 0 0 0 -0 -0 -0 -0 0 0 0 0 0 0 0 0 0 0 0 0 0 0 0 0 0 0 0 0 0 0
0 0 0 0 0 0 0 0 0 0 0 0 0 -0 -0 -0 0 0 0 0 0 0 0 0 0 0 0 0 0 0 0 0 0 0 0 0 0 0
0 0 0 0 0 0 0 0 0 0 0 0 0 0 -0 -0 0 0 0 0 0 0 0 0 0 0 0 0 0 0 0 0 0 0 0 0 0 0
0 0 0 0 0 0 0 0 0 0 0 0 0 0 0 -0 -0 0 0 0 0 0 0 0 0 0 0 0 0 0 0 0 0 0 0 0 0 0
0 0 0 0 0 0 0 0 0 0 0 0 0 0 0 0 0 0 0 0 0 0 0 0 -0 0 0 0 0 0 0 0 0 0 0 0 0 0
0 0 0 0 0 0 0 0 0 0 0 0 0 0 0 0 0 0 0 0 0 0 0 0 0 0 0 0 0 0 0 0 0 0 0 0 0 0
0 0 0 0 0 0 0 0 0 0 0 0 0 0 0 0 0 0 0 0 0 0 0 0 0 0 0 0 0 0 0 0 0 0 0 0 0 0
0 0 0 0 0 0 0 0 0 0 0 0 0 0 0 0 0 0 0 0 0 0 0 0 0 0 0 0 0 0 0 0 0 0 0 0 0 0
0 0 0 0 0 0 0 0 0 0 0 0 0 0 0 0 0 0 0 0 0 0 0 0 0 0 0 0 0 0 0 0 0 0 0 0 0 0
0 0 0 0 0 0 0 0 0 0 0 0 0 0 0 0 0 0 0 0 0 0 0 0 0 0 0 0 0 0 0 0 0 0 0 0 0 0
0 0 0 0 0 0 0 0 0 0 0 0 0 0 0 0 0 0 0 0 0 0 0 0 0 0 0 0 0 0 0 0 0 0 0 0 0 0
0 0 0 0 0 0 0 0 0 0 0 0 0 0 0 0 0 0 0 0 -0 0 0 0 0 0 0 0 0 0 0 0 0 0 0 0 0 0
0 0 0 0 0 0 0 0 0 0 0 0 0 0 0 0 0 0 0 0 0 -0 0 0 0 0 0 0 0 0 0 0 0 0 0 0 0 0
0 0 0 0 0 0 0 0 0 0 0 0 0 0 0 0 0 0 0 0 0 -0 0 0 0 0 0 0 0 0 0 0 0 0 0 0 0 0
0 0 0 0 0 0 0 0 0 0 0 0 0 0 0 0 0 0 0 0 0 0 0 0 0 0 0 0 0 0 0 0 0 0 0 0 0 0
0 0 0 0 0 0 0 0 0 0 0 0 0 0 0 0 0 0 0 0 0 0 0 0 0 0 0 0 0 0 0 0 0 0 0 0 0 0
0 0 0 0 0 0 0 0 0 0 0 0 0 0 0 0 0 0 0 0 0 0 0 0 0 0 0 0 0 0 0 0 0 0 0 0 0 0
0 0 0 0 0 0 0 0 0 0 0 0 0 0 0 0 0 0 0 0 0 0 0 0 0 0 0 0 0 0 0 0 0 0 0 0 0 0
0 0 0 0 0 0 0 0 0 0 0 0 0 0 0 0 0 0 0 0 0 0 0 0 0 0 0 0 0 0 0 0 0 0 0 0 0 0
Wind_Speed
3 3 3 2 3 3 3 4 4 4 5 4 3 2 3 2 4 2 2 6 6 6 6 5 5 5 4 4 4 4 4 4 4 5 6 6 6 6
3 3 3 2 3 3 4 4 4 4 5 3 3 2 3 3 4 3 3 6 6 7 6 6 5 5 5 5 4 5 5 5 6 6 7 7 7 7
3 4 5 4 3 3 4 4 4 4 5 3 2 2 4 4 3 3 3 3 4 7 7 7 6 6 6 6 6 5 5 5 6 7 7 8 8 8
4 4 5 4 5 4 4 5 5 5 5 5 3 3 4 4 4 4 3 3 3 6 7 7 6 6 6 6 6 6 6 5 6 7 8 8 8 9
5 5 5 5 6 5 5 5 5 4 4 5 4 3 3 3 3 3 3 3 3 4 6 7 7 7 7 7 7 6 6 6 6 7 7 8 8 9
5 6 6 6 7 6 6 6 5 5 5 5 5 4 3 3 3 3 3 3 3 3 5 6 7 8 8 8 8 7 7 7 7 8 8 8 8 9
6 6 6 8 9 8 6 5 6 5 5 5 5 4 4 4 5 3 4 3 3 3 3 3 3 3 4 7 8 9 8 9 9 9 9 9 9 9
6 6 7 8 10 11 12 11 10 8 8 7 6 7 7 6 4 4 4 3 4 3 3 3 3 4 4 4 8 10 10 9 9 9 9 9 9 10
6 6 6 6 8 6 9 11 11 13 13 9 9 9 8 8 7 6 6 6 5 3 3 4 3 5 4 6 10 11 10 10 9 9 9 9 10 10
6 6 6 6 6 6 6 7 7 9 10 8 9 9 8 8 9 8 7 4 3 3 4 4 4 4 4 4 10 11 10 9 9 9 9 9 9 9
6 7 7 7 10 11 7 7 7 7 9 12 12 11 12 12 9 5 5 4 4 4 4 3 3 3 3 4 6 9 9 9 9 9 9 9 9 8
5 6 10 10 12 12 8 7 8 7 6 6 7 8 8 9 12 9 8 6 4 4 4 4 3 2 3 3 3 3 5 8 9 9 10 9 9 5
5 5 6 11 13 13 11 7 9 7 6 6 5 4 4 5 6 6 6 7 6 5 5 5 4 3 3 3 3 3 3 3 4 6 8 9 9 6
5 5 6 11 13 13 10 9 11 8 4 4 4 4 4 4 4 4 5 5 5 5 6 6 4 5 4 3 3 3 3 3 3 4 4 7 7 8
5 8 10 12 11 8 10 11 8 4 3 4 5 5 4 4 3 3 3 3 2 3 4 5 5 5 5 4 3 3 3 3 4 3 3 3 3 3
5 7 10 10 7 6 6 5 4 3 4 4 4 4 3 3 4 4 4 4 3 2 3 5 5 6 4 4 4 4 4 3 3 3 3 4 3 4
4 3 2 3 3 3 3 3 3 2 3 3 3 3 4 4 4 4 4 4 4 4 3 3 3 3 4 4 4 5 4 4 4 3 3 3 4 4
5 3 3 3 3 3 3 3 2 3 3 3 3 4 4 4 4 4 4 4 4 4 4 3 3 1 0 2 6 5 4 4 3 3 3 3 4 3
3 2 2 3 3 3 3 3 3 3 3 3 4 4 4 4 4 5 5 4 4 4 4 4 4 4 4 3 3 5 4 3 3 3 3 3 4 4
3 2 3 3 3 3 3 3 3 3 3 3 4 4 4 4 5 5 5 5 5 4 4 4 5 5 6 4 3 3 5 4 4 4 3 3 3 5
3 3 3 3 3 3 3 3 3 3 3 2 3 3 4 4 4 5 5 7 5 4 5 5 4 5 2 1 1 2 3 5 6 4 3 2 3 3
3 3 3 3 3 3 3 3 3 2 2 2 2 3 3 3 4 5 5 5 4 4 4 2 3 3 2 4 4 3 3 2 3 5 6 6 3 4
3 3 3 4 3 3 3 3 3 3 2 2 2 2 2 2 2 3 3 4 4 4 3 2 2 2 2 3 4 3 3 2 1 1 3 5 7 8
Wind_Direction
231 230 234 246 228 212 199 194 190 216 237 223 220 220 217 213 235 220 231 252 259 266 269 273 277 273 269 271 275 277 276 275 279 275 275 275 279 284
229 228 238 244 243 224 209 207 208 210 232 219 219 214 214 230 235 219 234 256 255 260 261 263 265 260 260 259 261 262 264 261 266 270 269 274 277 279
237 229 233 232 236 235 221 214 213 209 229 248 239 222 210 217 232 224 224 232 242 252 253 254 253 255 257 260 256 260 260 260 262 266 268 268 271 273
241 239 238 233 233 237 226 222 220 214 216 235 238 220 225 217 212 219 235 243 237 247 246 245 246 253 259 258 255 257 260 262 264 264 267 266 268 272
237 239 241 233 237 238 234 227 226 225 218 221 230 219 221 217 208 225 229 230 241 247 243 241 246 252 254 252 254 256 257 256 260 263 266 268 268 269
239 237 237 232 234 232 235 230 222 221 219 217 223 216 217 203 197 211 232 221 235 246 246 248 251 254 254 257 254 252 253 252 253 259 264 265 267 269
244 241 242 241 238 236 236 232 221 219 217 219 220 221 215 200 209 205 226 237 237 220 229 241 240 239 242 254 259 249 250 254 254 257 260 260 263 268
245 247 247 248 247 248 249 245 233 221 216 217 221 219 219 211 207 207 212 220 244 209 203 241 230 241 244 235 251 254 250 252 254 257 259 259 260 263
243 245 249 248 249 244 249 252 248 243 232 219 219 221 215 205 199 209 213 221 232 202 193 240 227 241 242 251 255 254 253 250 253 256 258 258 262 262
244 243 243 247 245 246 244 247 247 244 240 232 224 222 217 207 201 206 212 222 232 211 194 234 230 238 253 247 250 249 252 253 254 257 259 260 263 264
248 247 245 242 249 250 245 244 251 255 254 249 241 233 228 222 209 188 188 199 225 221 202 212 227 244 251 246 245 246 251 257 257 260 262 262 262 262
253 249 250 252 251 250 243 237 242 246 244 251 251 243 227 218 214 199 188 196 207 222 197 195 202 204 253 244 236 239 247 257 260 262 264 264 261 252
254 252 251 258 258 256 252 241 243 243 228 225 228 224 214 207 208 210 202 199 203 219 194 187 201 205 218 248 246 236 232 247 254 258 259 262 260 248
256 256 257 264 263 262 258 256 255 248 220 209 209 212 208 208 209 209 212 220 222 220 194 188 202 202 206 228 244 235 237 240 245 256 256 263 259 253
266 268 268 265 266 263 260 257 250 226 210 217 213 213 206 201 196 203 207 206 217 218 205 207 206 201 202 217 227 225 244 244 236 240 249 252 250 249
280 275 275 274 272 270 269 260 238 219 215 224 221 211 191 191 201 199 201 192 202 229 219 208 202 196 208 220 224 235 229 227 229 239 253 261 256 247
280 268 268 264 257 257 255 252 236 228 232 222 214 210 203 203 208 198 194 193 202 211 214 200 195 196 210 213 222 231 233 238 236 234 242 259 255 245
290 273 263 258 256 252 248 248 241 233 228 220 215 213 210 209 211 203 197 201 209 210 204 190 172 169 266 270 224 224 231 235 235 234 237 253 266 259
311 304 293 284 278 274 261 248 243 241 235 222 217 214 215 215 211 208 204 205 212 209 198 185 182 184 205 243 254 221 218 225 229 245 239 243 259 267
317 306 299 297 293 285 280 267 257 247 236 230 220 214 212 211 213 210 204 203 208 203 199 195 194 197 204 215 236 255 239 226 223 236 251 264 270 275
315 305 300 295 292 291 289 280 263 253 246 239 226 216 213 212 216 210 205 211 210 202 206 212 211 202 172 147 221 263 260 250 236 226 226 247 271 272
312 310 307 305 302 296 293 291 282 268 251 243 244 225 214 216 217 210 205 202 207 208 210 206 172 170 179 198 218 237 267 287 270 259 251 235 217 223
304 306 308 309 305 300 294 289 287 282 267 257 253 238 215 213 215 209 204 198 192 192 190 192 197 191 201 201 212 227 236 250 269 277 282 268 258 258